This demonstration page uses our WeatherBlox Daily Observations layout. Learn more.

Left ArrowRight Arrow

Hourly Observations for May 8, 2018

Temp ( °F °C ) Dew Point ( °F °C ) Humidity (%) Winds ( mph kmh ) Pressure ( in mb ) Visibility ( mi km ) Precip ( " mm )
12:15 am 00:15 Clear 68 20.1 50 10 52 52 SSE 12 19 29.83 1010 10 16.0934 0 0
12:35 am 00:35 Clear 68 19.8 50 10 53 53 SSE 10 17 29.83 1010 10 16.0934 0 0
12:55 am 00:55 Clear 68 20.1 50 10 52 52 SSE 13 20 29.83 1010 10 16.0934 0 0
1:15 am 01:15 Clear 69 20.3 50 10 52 52 SSE 14 22 29.83 1010 10 16.0934 0 0
1:35 am 01:35 Clear 68 20.2 50 10 52 52 SSE 14 22 29.8 1009 10 16.0934 0 0
1:55 am 01:55 Clear 68 20.2 51 10.3 53 53 SSE 14 22 29.8 1009 10 16.0934 0 0
2:15 am 02:15 Clear 68 20.1 51 10.5 54 54 SSE 14 22 29.8 1009 10 16.0934 0 0
2:35 am 02:35 Clear 67 19.4 51 10.5 57 57 SSE 12 19 29.8 1009 10 16.0934 0 0
2:55 am 02:55 Clear 65 18.5 51 10.5 60 60 SSE 12 19 29.8 1009 10 16.0934 0 0
3:15 am 03:15 Clear 64 18 51 10.5 62 62 SSE 12 19 29.77 1008 10 16.0934 0 0
3:35 am 03:35 Clear 65 18.1 51 10.8 63 63 SSE 13 20 29.77 1008 10 16.0934 0 0
3:55 am 03:55 Clear 64 18 52 10.9 63 63 SSE 13 20 29.77 1008 10 16.0934 0 0
4:15 am 04:15 Clear 63 17.1 52 10.9 67 67 SSE 9 15 29.8 1009 10 16.0934 0 0
4:35 am 04:35 Clear 62 16.5 52 10.9 70 70 SSE 8 13 29.77 1008 10 16.0934 0 0
4:55 am 04:55 Clear 61 15.9 51 10.8 72 72 SSE 9 15 29.77 1008 10 16.0934 0 0
5:15 am 05:15 Clear 59 15 52 10.9 77 77 SSE 10 17 29.77 1008 10 16.0934 0 0
5:35 am 05:35 Clear 59 14.8 51 10.7 77 77 SSE 7 11 29.77 1008 10 16.0934 0 0
5:55 am 05:55 Clear 57 14.1 52 10.9 81 81 SE 9 15 29.8 1009 10 16.0934 0 0
6:15 am 06:15 Clear 57 13.9 52 10.9 82 82 SSE 7 11 29.8 1009 10 16.0934 0 0
6:35 am 06:35 Sunny 56 13.2 51 10.5 84 84 SE 3 6 29.8 1009 10 16.0934 0 0
6:55 am 06:55 Sunny 56 13.3 51 10.8 85 85 SE 5 7 29.8 1009 10 16.0934 0 0
7:15 am 07:15 Sunny 57 13.7 52 11.2 85 85 N 5 7 29.83 1010 10 16.0934 0 0
7:35 am 07:35 Sunny 58 14.6 54 12 85 85 Calm 29.8 1009 10 16.0934 0 0
7:55 am 07:55 Sunny 61 16.2 54 12.4 78 78 SE 7 11 29.77 1008 10 16.0934 0 0
8:15 am 08:15 Sunny 63 17.3 55 12.8 75 75 Calm 29.8 1009 10 16.0934 0 0
8:35 am 08:35 Sunny 64 18 55 12.8 72 72 ESE 6 9 29.74 1007 10 16.0934 0 0
8:55 am 08:55 Sunny 65 18.6 55 12.9 70 70 NNE 6 9 29.77 1008 10 16.0934 0 0
9:15 am 09:15 Sunny 65 18.3 55 12.8 70 70 N 3 6 29.77 1008 10 16.0934 0 0
9:35 am 09:35 Sunny 66 18.7 55 12.9 69 69 Calm 29.77 1008 10 16.0934 0 0
9:55 am 09:55 Sunny 68 19.8 56 13.2 66 66 NE 6 9 29.77 1008 10 16.0934 0 0
10:15 am 10:15 Sunny 67 19.6 55 13 66 66 Calm 29.77 1008 10 16.0934 0 0
10:35 am 10:35 Sunny 67 19.7 55 12.9 65 65 N 7 11 29.77 1008 10 16.0934 0 0
10:55 am 10:55 Sunny 69 20.7 56 13.2 62 62 NNW 6 9 29.77 1008 10 16.0934 0 0
11:15 am 11:15 Sunny 71 21.4 55 13 59 59 N 7 11 29.8 1009 10 16.0934 0 0
11:35 am 11:35 Sunny 71 21.5 55 12.9 58 58 N 10 17 29.8 1009 10 16.0934 0 0
11:55 am 11:55 Sunny 73 22.9 56 13.2 54 54 N 9 15 29.74 1007 10 16.0934 0 0
12:15 pm 12:15 Sunny 75 24.1 56 13.4 51 51 N 16 26 29.74 1007 10 16.0934 0 0
12:35 pm 12:35 Sunny 76 24.5 56 13.1 49 49 N 14 22 29.77 1008 10 16.0934 0 0
12:55 pm 12:55 Sunny 75 23.9 54 12.2 48 48 NNW 15 24 29.77 1008 10 16.0934 0 0
1:15 pm 13:15 Sunny 76 24.6 56 13.1 49 49 N 15 24 29.74 1007 10 16.0934 0 0
1:35 pm 13:35 Sunny 78 25.5 56 13.4 47 47 N 18 30 29.77 1008 10 16.0934 0 0
1:55 pm 13:55 Sunny 77 25.2 55 12.7 46 46 N 17 28 29.77 1008 10 16.0934 0 0
2:15 pm 14:15 Sunny 78 25.6 55 12.7 45 45 N 20 31 29.74 1007 10 16.0934 0 0
2:35 pm 14:35 Sunny 79 26.3 55 12.6 43 43 N 18 30 29.74 1007 10 16.0934 0 0
2:55 pm 14:55 Sunny 78 25.8 54 12.3 43 43 N 17 28 29.74 1007 10 16.0934 0 0
3:15 pm 15:15 Sunny 79 26.2 53 11.9 41 41 N 20 31 29.74 1007 10 16.0934 0 0
3:35 pm 15:35 Sunny 80 26.5 54 12.1 41 41 N 17 28 29.74 1007 10 16.0934 0 0
3:55 pm 15:55 Sunny 79 26.2 54 12 41 41 N 15 24 29.74 1007 10 16.0934 0 0
4:15 pm 16:15 Partly Cloudy 80 26.6 54 12.2 41 41 N 16 26 29.74 1007 10 16.0934 0 0
4:35 pm 16:35 Sunny 80 26.6 53 11.6 39 39 NNE 22 35 29.74 1007 10 16.0934 0 0
4:55 pm 16:55 Sunny 80 26.6 54 12.1 41 41 NNE 17 28 29.74 1007 10 16.0934 0 0
5:15 pm 17:15 Partly Cloudy 80 26.8 53 11.7 39 39 N 15 24 29.71 1006 10 16.0934 0 0
5:35 pm 17:35 Partly Cloudy 81 27.1 52 10.9 36 36 N 15 24 29.71 1006 10 16.0934 0 0
5:55 pm 17:55 Sunny 81 27 50 9.9 34 34 N 16 26 29.74 1007 10 16.0934 0 0
6:15 pm 18:15 Partly Cloudy 81 27 50 10 34 34 N 16 26 29.74 1007 10 16.0934 0 0
6:35 pm 18:35 Partly Cloudy 80 26.6 50 9.8 35 35 N 17 28 29.74 1007 10 16.0934 0 0
6:55 pm 18:55 Sunny 80 26.5 49 9.7 35 35 N 17 28 29.74 1007 10 16.0934 0 0
7:15 pm 19:15 Sunny 79 26.1 47 8.6 33 33 N 13 20 29.74 1007 10 16.0934 0 0
7:35 pm 19:35 Sunny 78 25.7 48 9.1 35 35 N 13 20 29.74 1007 10 16.0934 0 0
7:55 pm 19:55 Sunny 76 24.3 49 9.5 39 39 NNE 9 15 29.77 1008 10 16.0934 0 0
8:15 pm 20:15 Sunny 74 23.4 47 8.6 39 39 NNE 7 11 29.77 1008 10 16.0934 0 0
8:35 pm 20:35 Sunny 70 21.2 49 9.4 47 47 NNE 5 7 29.8 1009 10 16.0934 0 0
8:55 pm 20:55 Clear 68 20.2 48 8.7 48 48 NE 5 7 29.8 1009 7 11.26538 0 0
9:15 pm 21:15 Clear 68 20 48 9.1 50 50 Calm 29.8 1009 10 16.0934 0 0
9:35 pm 21:35 Clear 65 18.3 48 8.9 54 54 Calm 29.8 1009 10 16.0934 0 0
9:55 pm 21:55 Clear 64 17.6 47 8.6 56 56 Calm 29.83 1010 7 11.26538 0 0
10:15 pm 22:15 Hazy 64 17.7 48 8.9 57 57 Calm 29.83 1010 5 8.0467 0 0
10:35 pm 22:35 Clear 60 15.8 47 8.2 61 61 Calm 29.85 1011 7 11.26538 0 0
10:55 pm 22:55 Clear 60 15.3 47 8.6 65 65 WNW 7 11 29.85 1011 10 16.0934 0 0

Powered by AerisWeather